Regional Weather Roundup
Issued by NWS Wilmington, NC

Home | Current Version | Previous Version | Text Only | Print | Product List | Glossary On
Versions: 1 2 3 4 5 6 7 8 9 10 11 12 13 14 15 16 17 18 19 20 21 22 23 24 25 26 27
000
ASUS42 KILM 310512
RWRILM
RWRILM
REGIONAL HOURLY WEATHER ROUNDUP
NATIONAL WEATHER SERVICE WILMINGTON NC
100 AM EDT SAT JUL 31 2021

NOTE: "FAIR" INDICATES FEW OR NO CLOUDS BELOW 12,000 FEET WITH NO
SIGNIFICANT WEATHER AND/OR OBSTRUCTIONS TO VISIBILITY.

...............WFO WILMINGTON COUNTY WARNING AREA...............

......COASTAL NC AND SC COUNTIES......

CITY           SKY/WX    TMP DP  RH WIND       PRES   REMARKS
WILMINGTON     CLEAR     82  78  88 SW9       29.93F HX  91
N MYRTLE BEACH CLEAR     83  76  79 SW10      29.94S HX  91
MYRTLE BEACH   MOCLDY    83  78  85 S6        29.95S HX  93

......INLAND NC AND SC COUNTIES.......

CITY           SKY/WX    TMP DP  RH WIND       PRES   REMARKS
LUMBERTON      NOT AVBL
ELIZABETHTOWN  CLEAR     80  79  95 S7        29.93F
WHITEVILLE     PTCLDY    82  79  90 S5        29.95S HX  92
FLORENCE       CLEAR     81  75  82 S5        29.94R
DARLINGTON     CLEAR     78  77  96 SW3       29.94S
KINGSTREE      FAIR      81  79  94 CALM      29.94S
HARTSVILLE     FAIR      77  75  94 CALM      29.94F
BENNETTSVILLE    N/A     77  77 100 CALM      29.93S FOG
CONWAY         FAIR      81  77  89 SW5       29.95S
GEORGETOWN     FAIR      81  77  89 SW6       29.96F
MARION         FAIR      79  79 100 SW5       29.94S

....................REST OF NORTH CAROLINA......................

.........EASTERN NC.........

CITY           SKY/WX    TMP DP  RH WIND       PRES   REMARKS
CAPE HATTERAS  PTCLDY    81  78  91 SW13G20   29.90F
JACKSONVILLE   CLEAR     79  78  97 SW7       29.93F
MOREHEAD CITY  PTCLDY    84  79  85 SW14      29.91F HX  96
KENANSVILLE    CLEAR     79  79 100 CALM      29.92F FOG
NEW BERN       CLEAR     80  78  94 SW7       29.92F
ELIZABETH CITY MOCLDY    76  72  87 N14       29.94R

.........CENTRAL NC.........

CITY           SKY/WX    TMP DP  RH WIND       PRES   REMARKS
RALEIGH DURHAM PTCLDY    78  71  79 CALM      29.93S
ROCKY MOUNT    CLEAR     78  75  90 SW3       29.91S
ROANOKE RAPIDS NOT AVBL
FAYETTEVILLE   CLEAR     81  76  84 SW5       29.91F
HOFFMAN        CLEAR     79  78  96 CALM      29.90F

.........WESTERN NC.........

CITY           SKY/WX    TMP DP  RH WIND       PRES   REMARKS
CHARLOTTE      PTCLDY    77  73  87 CALM      29.97F
GREENSBORO     MOCLDY    77  69  76 N6        29.97S
HICKORY        NOT AVBL
BOONE          NOT AVBL
ASHEVILLE      NOT AVBL

.....................REST OF SOUTH CAROLINA.....................

.........EASTERN SC.........

CITY           SKY/WX    TMP DP  RH WIND       PRES   REMARKS
CHARLESTON     PTCLDY    82  79  90 SW8       29.95F HX  92
BEAUFORT MCAS  PTCLDY    84  80  88 S5        29.97S HX  97
HILTON HEAD    PTCLDY    84  81  89 SW7       29.98S HX  98

.........CENTRAL SC.........

CITY           SKY/WX    TMP DP  RH WIND       PRES   REMARKS
COLUMBIA       PTCLDY    79  76  90 S5        29.94S
ORANGEBURG     CLEAR     80  77  90 CALM      29.96S
SUMTER SHAW    CLEAR     82  75  80 CALM      29.93F

.........WESTERN SC.........

CITY           SKY/WX    TMP DP  RH WIND       PRES   REMARKS
GREENVILLE     NOT AVBL
ROCK HILL      CLEAR     75  72  90 SW6       29.97S
ANDERSON       PTCLDY    77  76  96 CALM      29.97F
CLEMSON        NOT AVBL
GREENWOOD      PTCLDY    77  76  96 CALM      29.98F


...................COASTAL AND OFFSHORE REPORTS..................

................LOCAL PIERS AND NC RESERVE................


STATION/POSITION TIME  SKY/WX   TEMP    WIND        PRES    VSBY
                                AIR SEA DIR/SP/G
                 (UTC)          (F)     (DEG/KT/KT) (MB)    (MI)
JOHNY MRCER PIER 0430            83 82  220/ 11/ 14 1013.4S
NC RESRV MASNBRO NOT AVBL
OCEAN CREST PIER NOT AVBL
SPRINGMAID  PIER 0430            83                   N/A


................COASTAL AND OFFSHORE BUOYS................


STATION/POSITION TIME  SKY/WX   TEMP    WIND        PRES    VSBY
                                AIR SEA DIR/SP/G
                 (UTC)          (F)     (DEG/KT/KT) (MB)    (MI)
DIMNDSHOAL 41025 0450            82     240/ 17/ 23 1012.3F
CAPE LOOKOUT     0400            82     230/ 13/ 18 1013.7R
ONSLOW BAY 41036 NOT AVBL
ONSLOW BAY 41064 0408            83     240/ 17/ 23 1013.3R
ONSLOW BAY 41159 0426               83                N/A
WVE H/P(F/S)=  5/ 6

MASNBO INL 41110 0437               82                N/A
WVE H/P(F/S)=  3/ 5

WILM HARBR 41108 0430               83                N/A
WVE H/P(F/S)=  4/ 6

27SE WRITB 41037 0408            83 82  220/ 16/ 23 1013.5F
FRYING PAN 41013 0450            83 83  220/ 17/ 21 1013.9F
WVE H/P(F/S)=  5/ 5

SUNST NRSH 41024 0408            83 84  240/ 16/ 21 1015.0F
CAPRS NRSH 41029 NOT AVBL
EDISTO     41004 0450            83 83  210/ 16/ 19 1014.7F
WVE H/P(F/S)=  4/ 5



..........OFFSHORE BUOYS BEYOND 100 NM OFFSHORE...........
.....IN A TRIANGLE---HAT TO BERMUDA TO BAHAMAS TO HAT.....


STATION/POSITION TIME  SKY/WX   TEMP    WIND        PRES    VSBY
                                AIR SEA DIR/SP/G
                 (UTC)          (F)     (DEG/KT/KT) (MB)    (MI)
150E HAT   41001 0450            82 82  240/ 17/ 21 1013.6F
WVE H/P(F/S)=  6/ 7 SWL H/P/D(F/S/D)=  2/250/15

W BERMUDA  41048 0450            82     230/ 19/ 23 1018.7F
WVE H/P(F/S)=  6/ 6

ATLANTIC S 41049 0450            82 83  150/  4/  6 1022.0F
WVE H/P(F/S)=  3/ 8 SWL H/P/D(F/S/D)=  3/110/ 8

E BAHAMAS  41046 0450            83 83  100/ 12/ 14 1021.3F
WVE H/P(F/S)=  3/ 8 SWL H/P/D(F/S/D)=  2/110/ 8

NE BAHAMAS 41047 0450            82 84  170/ 12/ 14 1019.9F
WVE H/P(F/S)=  2/ 8 SWL H/P/D(F/S/D)=  2/120/ 8

120E CANVRL41010 0450            84     190/ 14/ 17 1017.8F

END



USA.gov is the U.S. government's official web portal to all federal, state and local government web resources and services.